Hourly Data Report for July 13, 2020

TORONTO CITY
ONTARIO
Current Station Operator: ECCC - MSC

43°40'00.000" N
79°24'00.000" W
112.50 m
6158355
71508
XTO

Download Data

Hourly Data (July 2020)
Hourly Data Report for July 13, 2020
TIME
LST
Temp Definition
°C
Dew Point Definition
°C
Rel Hum Definition
%
Precip. Amount Definition
mm

Wind Dir Definition
10's deg

Wind Spd Definition
km/h
Visibility Definition
km
Stn Press Definition
kPa
Hmdx Definition


Wind Chill Definition


Weather Definition


00:00 20.9 15.0 69 0.0       99.57 25   LegendNANA
01:00 20.2 14.9 71 0.0       99.58     LegendNANA
02:00 20.2 14.1 68 0.0       99.56     LegendNANA
03:00 19.6 14.0 70 0.0       99.54     LegendNANA
04:00 19.2 13.8 71 0.0       99.56     LegendNANA
05:00 19.3 13.9 71 0.0       99.60     LegendNANA
06:00 20.0 14.3 70 0.0       99.68     LegendNANA
07:00 20.0 14.4 70 0.0       99.74     LegendNANA
08:00 20.9 15.1 70 0.0       99.78 25   LegendNANA
09:00 21.4 14.9 66 0.0       99.77 25   LegendNANA
10:00 22.9 13.0 54 0.0       99.80 26   LegendNANA
11:00 24.8 12.6 47 0.0       99.80 27   LegendNANA
12:00 23.2 12.2 50 0.4       99.84 26   LegendNANA
13:00 23.2 12.7 52 0.0       99.86 26   LegendNANA
14:00 25.4 12.3 44 0.0       99.83 28   LegendNANA
15:00 25.5 12.7 45 0.0       99.85 28   LegendNANA
16:00 24.4 12.5 47 0.2       99.87 27   LegendNANA
17:00 24.1 12.6 48 0.0       99.89 27   LegendNANA
18:00 24.5 12.9 48 0.2       99.92 27   LegendNANA
19:00 23.3 12.8 52 0.0       99.98 26   LegendNANA
20:00 22.1 11.7 52 0.0       100.02     LegendNANA
21:00 21.1 12.8 59 0.0       100.08     LegendNANA
22:00 20.2 13.6 66 0.0       100.07     LegendNANA
23:00 19.9 14.0 69 0.0       100.09     LegendNANA

Notes on Data Quality.

Legend

  • E = Estimated
  • M = Missing
  • NA = Not Available*
  • [empty] = Indicates an unobserved value
Date modified: